Regional Weather Roundup
Issued by NWS Sterling, VA

Home | Current Version | Previous Version | Text Only | Print | Product List | Glossary Off
Versions: 1 2 3 4 5 6 7 8 9 10 11 12 13 14 15 16 17 18 19 20 21 22 23 24 25 26 27 28 29 30 31 32 33 34 35 36 37 38 39 40 41 42 43 44 45 46 47 48 49 50

000
ASUS41 KLWX 271610
RWRLWX

REGIONAL WEATHER ROUNDUP
NATIONAL WEATHER SERVICE BALTIMORE MD/WASHINGTON DC
1200 PM EDT SUN JUL 27 2014

Note: "FAIR" indicates few or no clouds below 12,000 feet
with no significant weather and/or obstructions to visibility.
 TC=TEMPERATURE CELSIUS

 * =Non NWS site. Station does not report precipitation (e.g. rain,
    snow, etc.), thunder, or fog.

DCZ001-MDZ009-015-VAZ040>042-051-053>054-271700-
WASHINGTON METRO
  /KDAA//-FT BELVOIR

CITY           SKY/WX    TMP DP  RH WIND       PRES   REMARKS
WASHINGTON NAT CLOUDY    79  68  69 SW12      29.82R
DULLES         PTSUNNY   77  70  79 S10       29.82S
ANDREWS AFB    CLOUDY    76  69  79 SW10      29.82R
QUANTICO       CLOUDY    72  69  90 VRB7      29.84S
COLLEGE PARK*  CLOUDY    77  70  78 SW3       29.80F
LEESBURG*      MOSUNNY   82  73  74 W10       29.82S
MANASSAS*      SUNNY     79  72  78 SW8       29.83R
GAITHERSBURG*  SUNNY     81  70  69 NW7       29.85S

$$

MDZ006>007-011-014-271700-
BALTIMORE METRO

CITY           SKY/WX    TMP DP  RH WIND       PRES   REMARKS
BWI AIRPORT    PTSUNNY   82  67  60 SW8       29.79F
MD SCIENCE CTR   N/A     83  66  56 MISG      29.78F
MARTIN STATE   MOSUNNY   81  70  69 W6        29.79F
ANNAPOLIS      PTSUNNY   79  67  66 W7        29.79F

$$

MDZ012-015-019>023-271700-
MARYLAND EASTERN SHORE

CITY           SKY/WX    TMP DP  RH WIND       PRES   REMARKS
OCEAN CITY     CLOUDY    81  70  69 W6        29.80F
SALISBURY      NOT AVBL
BAY BRIDGE AP*   N/A     77  68  73 SW5       29.79F
CAMBRIDGE*     PTSUNNY   79  68  69 SW3       29.80S
EASTON*        CLOUDY    81  72  74 W8        29.83F

$$

MDZ017>025-271700-
SOUTHERN MARYLAND

CITY           SKY/WX    TMP DP  RH WIND       PRES   REMARKS
PATUXENT RIVER LGT RAIN  75  70  84 SW9       29.83R
ST INIGOES     LGT RAIN  76  69  79 SW8       29.83R
LEONARDTOWN*   CLOUDY    73  68  83 SW9       29.85R

$$

MDZ003>005-271700-
NORTH CENTRAL MARYLAND

CITY           SKY/WX    TMP DP  RH WIND       PRES   REMARKS
FREDERICK*       N/A     84  73  70 W8        29.83F HX  91
HAGERSTOWN APT PTSUNNY   82  68  62 W7        29.80F
WESTMINSTER*   SUNNY     81  72  74 W9        29.81F

$$

MDZ501>502-271700-
WESTERN MARYLAND

CITY           SKY/WX    TMP DP  RH WIND       PRES   REMARKS
OAKLAND*       PTSUNNY   70  70 100 SW12G17   29.95R
CUMBERLAND*    MOSUNNY   86  70  58 SW3       29.84F HX  90

$$

VAZ025>031-271700-
SHENANDOAH VALLEY

CITY           SKY/WX    TMP DP  RH WIND       PRES   REMARKS
WINCHESTER*    PTSUNNY   77  68  73 SW12      29.83S
STAUNTON*      CLOUDY    77  69  75 S9        29.92F

$$

WVZ021-048>050-054>055-271700-
EASTERN WEST VIRGINIA PANHANDLE

CITY           SKY/WX    TMP DP  RH WIND       PRES   REMARKS
MARTINSBURG    MOSUNNY   84  68  58 W10       29.81F
PETERSBURG*    CLOUDY    78  61  54 S6        29.86R

$$

VAZ036>039-050-271700-
CENTRAL FOOTHILLS

CITY           SKY/WX    TMP DP  RH WIND       PRES   REMARKS
CHARLOTTESVILL CLOUDY    74  69  85 SW7       29.89S
ORANGE*        CLOUDY    72  68  88 S14       29.89R

$$

VAZ055>057-271700-
NORTH AND CENTRAL PIEDMONT

CITY           SKY/WX    TMP DP  RH WIND       PRES   REMARKS
FREDERICKSBRG* CLOUDY    75  73  94 SW8       29.85R
STAFFORD*      CLOUDY    73  73 100 SW6       29.89R

$$

NCZ024-NYZ072-PAZ021-071-VAZ022-071-271700-
OTHER REGIONAL OBSERVATIONS

CITY           SKY/WX    TMP DP  RH WIND       PRES   REMARKS
NEW YORK CITY  PTSUNNY   78  68  71 VRB3      29.78F
PHILADELPHIA   PTSUNNY   84  66  54 SW14      29.77F
PITTSBURGH     CLOUDY    76  70  82 SW6       29.83S
ROANOKE        CLOUDY    75  67  76 W7        29.98R
RICHMOND       CLOUDY    74  70  87 SW10      29.87R
RALEIGH        CLOUDY    75  71  87 S3        29.96F

$$

ANZ530>537-271700-
MARINE OBSERVATIONS

STATION/POSITION TIME  TEMP    WIND        PRES
                       AIR SEA DIR/SP/G
                 (UTC) (F)     (DEG/KT/KT) (MB)
THOMAS PT LIGHT  1600   77 79  210/  7/  9 1009.5F
BALT KEY BRIDGE  1600   79     230/ 10/ 12 1008.4F
COVE POINT       1600   76     250/  5/  7 1009.3R
LEWISETTA        1600   75 80  230/  9/ 11 1010.1S
SOLOMONS ISLAND  1600      80                N/A
PINEY POINT      1600          250/  4/  6   N/A

$$



USA.gov is the U.S. government's official web portal to all federal, state and local government web resources and services.